{"data":{"norad_id":56165,"epoch":"2026-09-21T16:33:47.189664Z","epoch_age_seconds":84703,"freshness":"FRESH","line1":"1 56165U 23050D   26264.69012951  .00000020  00000+0  71107-5 0  9998","line2":"2 56165  81.0076 338.9382 0019426  46.2891 313.9873 13.88751896175480","mean_motion":13.88751896,"eccentricity":0.0019426,"inclination_deg":81.0076,"raan_deg":338.9382,"arg_perigee_deg":46.2891,"mean_anomaly_deg":313.9873,"bstar":7.1107e-6,"rev_number":17548,"period_min":103.69022747314,"perigee_km":918.80538380135,"apogee_km":947.21064441015,"semimajor_km":7311.1450141058,"source":"CELESTRAK","updated_at":"2026-09-22T09:00:25.729857Z"}}